SCP
0 0 0 0 0 0 0 -0 0 0 0 0 0 0 0 0 0 0 0 0 -0 0 -0 -0 -0 -0 -0 -0 -0 -0 -0 -0 -0 -0 -0 -0 -0 -0 -0 -0 -0 -0 -0 -0 -0 -0 -0 -0 -0
0 0 0 0 0 0 0 0 0 0 0 0 0 0 0 0 0 0 0 0 0 0 0 0 -0 -0 -0 -0 -0 -0 -0 -0 -0 -0 -0 -0 -0 -0 -0 -0 -0 -0 -0 -0 -0 -0 -0 -0 -0
0 0 0 0 0 0 0 -0 -0 0 0 0 0 0 0 0 0 0 0 0 0 0 0 0 -0 -0 -0 -0 -0 -0 -0 -0 -0 -0 -0 -0 -0 -0 -0 -0 -0 -0 -0 -0 -0 -0 -0 -0 -0
0 0 0 0 0 0 0 0 0 0 0 0 0 0 0 0 0 0 0 0 0 0 0 0 -0 -0 -0 -0 -0 -0 -0 -0 -0 -0 -0 -0 -0 -0 -0 -0 -0 -0 -0 -0 -0 -0 -0 -0 -0
0 0 0 0 0 0 0 -0 0 0 0 -0 0 0 0 0 0 0 0 0 0 0 0 0 0 -0 -0 -0 -0 -0 -0 -0 -0 -0 -0 -0 -0 -0 -0 -0 -0 -0 -0 -0 -0 -0 -0 -0 -0
0 0 0 0 0 0 0 0 0 0 0 0 0 0 0 0 0 0 0 0 0 0 0 0 0 0 0 0 -0 -0 -0 -0 -0 -0 -0 -0 -0 -0 -0 -0 -0 -0 -0 -0 -0 -0 -0 -0 -0
0 0 0 0 0 0 0 0 0 0 0 0 0 0 0 0 0 0 0 0 0 0 0 0 0 0 0 0 0 0 0 -0 -0 -0 0 0 -0 0 -0 -0 -0 0 -0 -0 -0 -0 -0 -0 0
0 0 0 0 0 0 0 0 0 0 0 0 0 0 0 0 0 0 0 0 0 0 0 0 0 0 0 0 0 0 0 0 0 0 0 0 0 -0 0 0 -0 -0 -0 -0 -0 -0 -0 0 0
0 0 0 0 0 0 0 0 0 0 0 0 0 0 0 0 0 0 0 0 0 0 0 0 0 0 0 0 0 0 0 0 0 0 0 0 0 0 0 0 0 0 -0 -0 -0 -0 -0 -0 -0
0 0 0 0 0 0 0 0 0 0 0 0 0 0 0 0 0 0 0 0 0 0 0 0 0 0 0 0 0 0 0 0 0 0 0 0 0 0 0 0 0 0 0 0 0 0 -0 -0 0
0 0 0 0 0 0 0 0 0 0 0 0 0 0 0 0 0 0 0 0 0 0 0 0 0 0 0 0 0 0 0 0 0 0 0 0 0 0 0 0 0 0 0 0 0 -0 0 -0 0
0 0 0 0 0 0 0 0 0 0 0 0 0 0 0 0 0 0 0 0 0 0 0 0 0 0 0 0 0 0 0 0 0 0 0 0 0 0 0 0 0 0 0 0 0 0 0 0 0
0 0 0 0 0 0 0 0 0 0 0 0 0 0 0 0 0 0 0 0 0 0 0 0 0 0 0 0 0 0 0 0 0 0 0 0 0 0 0 0 0 0 0 0 0 0 0 0 0
0 0 0 0 0 0 0 0 0 0 0 0 0 0 0 0 0 0 0 0 0 0 0 0 0 0 0 0 0 0 0 0 0 0 0 0 0 0 0 0 0 0 0 0 0 0 0 0 0
0 0 0 0 0 0 0 0 0 0 0 0 0 0 0 0 0 0 0 0 0 0 0 0 0 0 0 0 0 0 0 0 0 0 0 0 0 0 0 0 0 0 0 0 0 0 0 0 0
0 0 -0 0 0 0 0 0 0 0 0 0 0 0 0 0 0 0 0 0 0 0 0 0 0 0 0 0 0 0 0 0 0 0 0 0 0 0 0 0 0 0 0 0 0 0 0 0 0
-0 -0 -0 -0 0 0 0 0 0 0 0 0 0 0 0 0 0 0 0 0 0 0 0 0 0 0 0 0 0 0 0 0 0 0 0 0 0 0 0 0 0 0 0 0 0 0 0 0 0
-0 0 0 -0 0 0 0 0 0 0 0 0 0 0 0 0 0 0 0 0 0 0 0 0 0 0 0 0 0 0 0 0 0 0 0 0 0 0 0 0 0 0 0 0 0 0 0 0 0
0 0 -0 0 -0 0 0 0 0 0 0 0 0 0 0 0 0 0 0 0 0 0 0 0 0 0 0 0 0 0 0 0 0 0 0 0 0 0 0 0 0 0 0 0 0 0 0 0 0
0 0 0 -0 -0 0 0 0 0 0 0 0 0 0 0 0 0 0 1 0 0 0 0 0 0 0 0 0 0 0 0 0 0 0 0 0 0 0 0 0 0 0 0 0 0 0 0 0 0
0 0 0 0 -0 -0 0 0 0 0 0 0 0 0 0 0 0 0 1 1 0 0 0 0 0 0 0 0 0 0 0 0 0 0 0 0 0 0 0 0 0 0 0 0 0 0 0 0 0
0 0 0 -0 -0 -0 0 -0 0 0 0 0 0 0 0 0 0 1 1 1 0 0 0 0 0 0 0 0 0 0 0 0 0 0 0 0 0 0 0 0 0 0 0 0 0 0 0 0 0
0 -0 0 0 0 -0 -0 -0 0 0 0 0 0 0 0 0 0 1 1 1 1 0 0 0 0 0 0 0 0 0 0 0 0 0 0 0 0 0 0 0 0 0 0 0 0 0 0 0 0
0 -0 -0 -0 -0 -0 -0 -0 -0 0 0 0 0 0 0 0 0 0 0 0 0 0 0 0 0 0 0 0 0 0 0 0 0 0 0 0 0 0 0 0 0 0 0 0 0 0 0 0 0
0 0 -0 0 0 0 -0 0 0 -0 0 0 0 0 0 0 0 0 0 0 0 0 0 0 0 0 0 0 0 0 0 0 0 0 0 0 0 0 0 0 0 0 0 0 0 0 0 0 0
0 0 -0 -0 -0 -0 -0 0 0 -0 -0 0 0 0 0 0 0 0 0 0 0 0 0 0 0 0 0 0 0 0 0 0 0 0 0 0 0 -0 0 -0 0 0 0 0 0 0 0 0 0
0 0 0 0 0 0 0 -0 -0 -0 0 0 0 0 0 0 0 0 0 0 0 0 0 0 0 0 0 0 0 0 0 0 -0 -0 -0 0 0 0 0 0 -0 0 0 0 0 0 0 0 0
0 0 0 -0 -0 0 -0 0 0 -0 -0 0 0 0 0 0 0 0 0 0 0 0 0 0 0 0 0 0 0 -0 -0 -0 -0 -0 -0 -0 -0 -0 0 0 0 0 0 0 0 0 0 0 0
0 0 0 0 0 0 -0 -0 -0 -0 0 0 0 0 0 0 0 0 0 0 0 0 0 0 0 0 0 0 0 0 0 0 0 0 0 0 0 0 0 0 0 0 0 0 0 0 0 0 0
0 0 0 0 0 0 0 0 -0 0 0 -0 0 0 0 0 0 0 0 0 0 0 0 0 0 0 0 0 0 0 0 0 0 0 0 0 0 0 0 0 0 0 0 0 0 0 0 0 0
Wind_Speed_500mb
29 26 25 7 6 7 8 14 6 5 6 6 16 15 18 12 6 6 34 41 24 43 47 41 39 37 36 34 36 47 40 39 33 30 29 32 47 39 30 23 16 14 10 12 14 13 16 19 24
32 27 9 2 5 3 11 4 16 7 9 22 13 8 10 4 9 33 45 31 28 42 48 42 42 37 35 36 41 45 39 36 34 30 30 30 34 34 32 23 15 17 18 19 18 21 22 23 25
26 16 6 6 5 10 8 6 11 9 12 13 8 7 8 11 21 54 21 39 34 47 48 45 41 38 38 38 43 42 33 32 36 32 33 30 25 26 29 24 12 16 23 22 21 23 25 25 24
21 2 8 4 16 17 10 14 20 12 5 4 9 13 14 9 36 31 35 41 31 53 49 46 42 39 42 38 41 39 38 37 37 32 26 24 19 17 20 21 16 19 22 21 20 21 21 20 20
6 8 2 6 13 15 15 12 14 11 14 15 6 11 15 17 19 30 48 42 37 53 49 47 43 42 44 43 42 41 38 37 30 24 20 17 17 17 18 19 17 20 20 18 17 17 16 16 15
10 5 1 9 11 15 12 45 9 6 5 15 14 17 10 19 23 57 50 41 34 48 50 48 44 43 46 44 41 39 39 33 27 20 15 17 21 21 21 19 18 18 17 16 14 13 11 11 10
5 3 8 8 12 17 8 33 23 9 6 1 20 10 21 30 30 64 50 43 35 41 45 50 48 46 47 44 44 39 37 31 26 19 16 18 25 24 24 21 17 15 14 14 12 10 8 7 7
3 5 6 8 13 18 15 18 34 9 7 19 8 16 14 41 49 54 48 40 41 40 37 50 50 49 50 46 42 38 33 29 25 21 21 21 16 23 23 18 13 12 11 9 7 5 3 3 3
4 2 8 12 14 19 39 13 23 4 6 7 5 8 9 52 62 61 51 50 49 47 42 53 53 51 49 47 44 40 35 29 26 24 25 26 19 13 13 12 9 7 7 5 2 1 1 2 3
8 7 12 12 15 12 28 24 20 5 6 8 16 12 22 46 65 70 67 65 55 52 45 60 55 53 50 48 47 44 36 31 26 22 25 26 20 15 14 13 12 10 8 6 4 3 2 2 4
7 8 10 37 62 54 38 38 24 8 5 4 18 31 36 42 62 72 72 69 64 52 46 51 56 54 51 49 47 44 38 32 28 24 23 25 27 21 17 15 12 12 10 9 6 3 2 3 6
11 24 21 27 45 46 32 37 22 17 15 4 5 17 39 41 52 81 69 67 63 52 49 44 44 46 46 42 45 41 40 35 31 27 26 29 28 21 19 17 13 11 11 11 9 6 5 6 8
7 13 44 52 56 61 50 41 26 32 34 24 27 18 37 40 43 66 69 60 59 58 56 50 51 53 50 45 39 39 44 40 31 28 26 30 30 26 23 19 18 15 14 11 10 8 8 8 9
22 39 41 38 47 46 28 44 45 34 31 20 37 32 32 39 41 46 65 67 67 60 66 56 55 56 53 50 44 42 42 36 31 28 25 28 30 28 24 21 17 15 14 13 12 12 12 14 15
31 19 28 25 31 19 40 32 41 40 47 43 21 44 37 31 35 46 50 72 68 67 65 64 59 61 56 50 50 43 38 39 34 31 29 28 29 28 24 22 21 18 17 17 17 16 17 18 17
13 10 8 5 17 25 12 50 34 37 41 58 48 44 44 37 38 36 42 46 69 64 62 63 57 67 62 56 52 44 39 40 37 36 36 31 29 31 29 28 25 21 20 20 20 20 21 19 18
6 11 17 21 26 19 14 48 23 53 43 47 55 50 57 41 41 36 41 42 40 69 61 63 60 58 70 63 55 47 41 39 40 37 39 35 31 31 35 31 26 25 26 26 24 22 22 22 19
13 19 21 31 17 34 35 38 35 53 42 51 56 65 58 62 56 40 52 47 42 31 69 59 59 55 61 71 62 57 52 50 45 42 39 37 34 31 32 32 31 30 29 26 27 25 24 22 23
14 15 24 33 32 23 35 38 31 45 54 53 50 62 72 73 65 68 51 36 41 36 62 62 59 56 54 61 69 69 63 57 52 45 42 38 35 33 33 33 32 32 31 29 29 27 23 27 28
13 19 31 29 29 24 36 45 42 35 46 50 50 51 66 68 76 76 69 46 42 36 37 71 64 59 58 58 57 59 59 56 49 47 47 42 38 36 35 33 33 33 33 30 29 26 29 29 29
19 15 18 27 34 15 18 20 20 14 14 37 50 40 31 43 74 68 69 65 53 36 38 48 63 69 66 62 57 58 53 49 44 43 40 40 42 42 40 36 34 31 31 35 31 28 27 26 22
20 5 15 27 16 12 14 9 16 13 10 6 38 39 30 23 63 67 71 73 61 45 39 34 37 51 59 61 66 61 61 56 51 46 40 37 39 35 35 31 33 33 32 31 28 26 28 28 27
15 24 20 15 15 18 8 2 13 20 15 14 18 30 30 16 48 62 63 73 72 61 50 38 30 27 44 51 56 60 65 55 44 43 37 37 34 30 32 36 38 38 37 34 34 32 35 35 33
27 16 20 14 8 4 9 7 14 11 16 4 13 8 23 20 26 43 50 54 56 59 51 42 30 24 32 36 41 48 53 52 52 45 40 36 36 33 32 29 29 29 28 29 32 37 36 35 33
8 10 7 9 6 8 9 10 12 22 18 12 14 22 22 15 20 34 46 46 49 55 54 35 33 35 31 28 33 37 48 50 51 49 46 42 19 18 8 5 7 12 20 23 23 27 29 31 28
12 4 5 12 8 10 11 5 6 3 11 25 28 24 16 9 12 26 39 46 47 52 54 39 42 48 48 45 42 37 17 33 28 15 38 31 32 22 24 16 13 20 27 30 25 22 20 21 23
14 9 9 5 2 3 9 14 8 24 18 25 28 25 20 9 3 11 20 25 35 39 37 42 35 40 40 44 42 22 11 19 30 20 11 16 14 6 6 6 20 17 11 8 10 15 16 20 15
9 10 8 6 9 8 12 1 8 31 29 16 17 19 16 11 8 9 13 16 21 32 35 30 34 38 35 27 8 35 40 25 32 35 32 36 36 22 10 10 18 15 9 9 9 13 18 14 13
9 6 7 7 3 5 6 7 11 15 16 12 18 20 16 14 11 11 14 17 22 27 36 41 41 45 47 39 40 44 44 41 37 35 28 26 27 24 19 16 11 10 9 6 2 2 5 8 9
2 4 4 3 8 6 2 5 10 11 10 15 17 17 18 18 18 18 18 22 25 31 35 45 51 54 48 39 36 33 31 32 28 31 33 28 27 26 24 20 16 13 10 6 5 5 6 7 7
Wind_Direction_500mb
331 340 330 335 37 72 275 265 258 96 60 85 83 80 124 47 65 174 154 173 182 169 168 165 157 155 154 154 154 149 149 146 138 131 127 121 127 129 135 141 170 186 151 127 130 128 121 104 97
325 335 3 319 108 71 278 207 59 15 123 102 91 45 97 91 102 139 165 192 181 175 168 163 155 154 154 153 151 152 154 158 155 142 140 139 139 138 132 137 151 141 143 133 122 113 113 105 100
316 325 281 138 194 189 235 93 153 102 94 106 107 57 87 123 137 158 203 175 179 174 166 159 158 157 153 147 150 155 155 154 148 142 153 154 149 151 161 173 166 139 137 131 119 110 108 107 103
341 67 265 143 263 263 236 292 144 131 88 93 117 81 84 126 152 162 182 179 181 171 164 160 160 158 152 145 150 149 146 144 150 156 158 159 161 162 164 175 160 140 136 129 120 114 106 103 100
349 270 267 266 255 276 279 269 160 156 166 192 179 156 107 140 167 169 179 182 174 170 165 162 161 160 156 148 149 149 150 158 161 164 166 170 173 165 160 164 152 142 136 131 124 116 110 105 97
335 294 168 232 253 276 317 350 278 99 135 210 156 116 141 178 177 170 179 183 188 171 165 165 165 165 162 161 162 163 166 172 175 170 173 171 166 162 160 155 150 145 140 131 125 123 118 109 98
153 60 236 272 275 296 291 328 327 353 17 3 174 95 148 174 163 165 179 184 182 171 169 169 168 169 169 165 171 171 174 176 180 184 189 184 175 168 164 159 159 157 149 138 132 125 116 102 83
273 110 267 242 263 280 293 268 279 331 312 346 172 155 173 180 160 168 173 183 177 177 180 178 173 173 174 173 177 180 187 197 206 199 195 197 184 165 162 160 166 166 163 149 136 131 125 92 48
255 69 247 246 222 256 290 294 274 249 305 28 57 156 186 175 165 170 171 176 182 186 192 188 181 179 180 180 182 188 194 202 205 203 201 205 198 179 184 176 178 184 162 166 161 175 296 284 281
174 168 216 259 292 297 306 308 314 198 333 113 107 125 151 172 174 174 174 179 190 191 195 188 187 184 185 187 189 192 199 200 197 190 193 197 204 206 212 207 202 208 209 214 221 217 228 277 321
281 225 283 291 296 300 297 295 268 281 220 174 205 179 179 181 185 180 180 186 192 198 187 189 192 189 191 194 195 199 201 203 200 191 184 188 197 204 216 215 228 237 232 230 216 210 297 333 335
347 329 321 311 320 327 307 295 282 257 251 247 65 257 206 199 185 186 183 184 191 197 192 190 196 193 198 198 204 205 203 204 204 198 191 193 205 211 228 230 233 221 217 215 223 244 274 324 336
296 339 323 320 319 316 323 306 271 269 261 271 224 219 221 208 197 189 185 187 193 194 195 199 189 190 193 196 204 208 212 208 207 210 201 199 208 216 226 219 214 212 213 228 249 274 292 301 299
317 324 317 316 312 308 314 310 285 252 257 264 212 217 216 214 212 191 195 186 193 198 198 201 202 195 197 197 201 209 206 204 206 210 211 210 211 220 218 222 230 232 238 242 253 266 282 295 303
318 313 313 292 294 285 302 294 255 264 252 265 248 214 203 213 224 222 211 196 190 193 204 204 210 209 201 203 207 213 229 206 209 221 222 221 217 214 220 228 234 240 244 251 261 270 277 286 290
318 304 290 109 302 287 237 258 271 283 247 258 264 211 214 211 232 238 222 216 200 193 202 212 210 205 204 202 209 213 214 213 214 226 224 225 224 224 226 233 241 246 248 252 256 265 270 273 279
267 267 273 298 272 266 245 275 281 260 265 247 253 236 213 202 216 231 231 219 217 197 199 215 219 209 204 204 206 215 216 219 223 225 226 231 230 228 234 241 247 248 249 254 261 264 270 270 270
280 305 306 302 305 310 299 295 275 261 238 250 248 237 222 206 208 219 221 222 219 216 204 209 221 223 211 209 209 211 214 221 227 230 228 232 237 238 239 242 242 244 249 254 259 266 265 262 269
287 284 280 286 289 311 291 294 284 268 240 243 259 231 225 212 199 186 195 220 227 222 203 210 210 218 221 210 212 214 216 221 226 228 233 236 238 238 241 243 246 247 251 257 261 260 261 263 278
307 298 292 294 293 321 303 292 288 284 226 224 236 226 224 220 198 191 202 202 227 231 201 208 215 213 218 223 218 217 219 225 232 234 232 234 242 246 247 249 248 247 248 252 257 251 257 264 273
271 274 294 291 313 292 309 275 275 271 223 219 227 236 239 211 196 200 199 200 190 207 221 207 213 223 223 221 220 220 224 230 236 234 231 239 240 243 248 251 251 251 248 248 255 259 263 270 275
296 266 292 307 326 308 22 301 299 266 263 198 225 217 206 197 191 191 198 198 203 199 219 220 219 216 222 224 230 220 220 229 234 237 238 239 241 237 237 242 246 247 248 248 250 256 261 263 274
261 328 292 289 263 275 231 183 276 299 246 238 212 215 220 200 195 192 200 204 201 194 199 215 214 220 211 221 224 226 228 237 239 238 230 232 237 232 228 233 239 245 248 247 251 256 257 262 260
288 287 275 281 268 252 238 164 297 302 250 217 63 95 232 208 192 197 201 207 203 198 194 200 200 224 213 210 225 233 237 236 233 230 231 223 220 221 223 236 243 246 250 253 263 263 263 263 268
346 302 343 356 8 219 180 170 272 359 7 55 79 62 79 124 166 187 193 198 208 205 196 191 216 219 224 223 243 250 241 237 232 228 197 181 168 170 153 280 269 282 295 294 279 271 275 272 271
303 278 358 357 331 299 295 297 23 0 98 67 62 59 66 101 147 171 178 191 197 204 203 207 194 213 214 233 233 229 188 8 34 8 56 58 40 45 55 9 326 295 291 276 261 266 260 267 261
326 49 284 265 170 356 326 351 262 19 7 32 55 60 66 70 136 191 202 202 204 210 198 193 194 205 219 223 211 163 39 29 12 349 340 65 33 354 294 255 266 272 253 259 258 253 262 244 263
192 323 356 0 13 356 358 358 291 339 343 8 23 38 48 61 104 154 170 179 183 183 175 168 180 181 175 172 121 66 79 99 84 73 113 133 137 125 139 188 195 204 223 233 243 244 249 278 274
357 11 345 278 81 316 0 347 347 324 333 21 28 46 51 63 89 109 139 147 153 156 147 145 147 148 141 142 136 134 143 150 144 150 143 146 156 151 145 137 152 130 127 142 121 339 359 0 351
248 233 351 296 348 285 238 291 337 347 27 60 47 54 69 75 90 105 114 128 132 134 133 136 137 136 133 137 140 134 134 130 119 131 125 120 119 116 118 124 123 116 111 101 70 44 21 2 340
Wind_Speed_850mb
29 26 25 7 6 7 8 14 6 5 6 6 16 15 18 12 6 6 34 41 24 43 47 41 39 37 36 34 36 47 40 39 33 30 29 32 47 39 30 23 16 14 10 12 14 13 16 19 24
32 27 9 2 5 3 11 4 16 7 9 22 13 8 10 4 9 33 45 31 28 42 48 42 42 37 35 36 41 45 39 36 34 30 30 30 34 34 32 23 15 17 18 19 18 21 22 23 25
26 16 6 6 5 10 8 6 11 9 12 13 8 7 8 11 21 54 21 39 34 47 48 45 41 38 38 38 43 42 33 32 36 32 33 30 25 26 29 24 12 16 23 22 21 23 25 25 24
21 2 8 4 16 17 10 14 20 12 5 4 9 13 14 9 36 31 35 41 31 53 49 46 42 39 42 38 41 39 38 37 37 32 26 24 19 17 20 21 16 19 22 21 20 21 21 20 20
6 8 2 6 13 15 15 12 14 11 14 15 6 11 15 17 19 30 48 42 37 53 49 47 43 42 44 43 42 41 38 37 30 24 20 17 17 17 18 19 17 20 20 18 17 17 16 16 15
10 5 1 9 11 15 12 45 9 6 5 15 14 17 10 19 23 57 50 41 34 48 50 48 44 43 46 44 41 39 39 33 27 20 15 17 21 21 21 19 18 18 17 16 14 13 11 11 10
5 3 8 8 12 17 8 33 23 9 6 1 20 10 21 30 30 64 50 43 35 41 45 50 48 46 47 44 44 39 37 31 26 19 16 18 25 24 24 21 17 15 14 14 12 10 8 7 7
3 5 6 8 13 18 15 18 34 9 7 19 8 16 14 41 49 54 48 40 41 40 37 50 50 49 50 46 42 38 33 29 25 21 21 21 16 23 23 18 13 12 11 9 7 5 3 3 3
4 2 8 12 14 19 39 13 23 4 6 7 5 8 9 52 62 61 51 50 49 47 42 53 53 51 49 47 44 40 35 29 26 24 25 26 19 13 13 12 9 7 7 5 2 1 1 2 3
8 7 12 12 15 12 28 24 20 5 6 8 16 12 22 46 65 70 67 65 55 52 45 60 55 53 50 48 47 44 36 31 26 22 25 26 20 15 14 13 12 10 8 6 4 3 2 2 4
7 8 10 37 62 54 38 38 24 8 5 4 18 31 36 42 62 72 72 69 64 52 46 51 56 54 51 49 47 44 38 32 28 24 23 25 27 21 17 15 12 12 10 9 6 3 2 3 6
11 24 21 27 45 46 32 37 22 17 15 4 5 17 39 41 52 81 69 67 63 52 49 44 44 46 46 42 45 41 40 35 31 27 26 29 28 21 19 17 13 11 11 11 9 6 5 6 8
7 13 44 52 56 61 50 41 26 32 34 24 27 18 37 40 43 66 69 60 59 58 56 50 51 53 50 45 39 39 44 40 31 28 26 30 30 26 23 19 18 15 14 11 10 8 8 8 9
22 39 41 38 47 46 28 44 45 34 31 20 37 32 32 39 41 46 65 67 67 60 66 56 55 56 53 50 44 42 42 36 31 28 25 28 30 28 24 21 17 15 14 13 12 12 12 14 15
31 19 28 25 31 19 40 32 41 40 47 43 21 44 37 31 35 46 50 72 68 67 65 64 59 61 56 50 50 43 38 39 34 31 29 28 29 28 24 22 21 18 17 17 17 16 17 18 17
13 10 8 5 17 25 12 50 34 37 41 58 48 44 44 37 38 36 42 46 69 64 62 63 57 67 62 56 52 44 39 40 37 36 36 31 29 31 29 28 25 21 20 20 20 20 21 19 18
6 11 17 21 26 19 14 48 23 53 43 47 55 50 57 41 41 36 41 42 40 69 61 63 60 58 70 63 55 47 41 39 40 37 39 35 31 31 35 31 26 25 26 26 24 22 22 22 19
13 19 21 31 17 34 35 38 35 53 42 51 56 65 58 62 56 40 52 47 42 31 69 59 59 55 61 71 62 57 52 50 45 42 39 37 34 31 32 32 31 30 29 26 27 25 24 22 23
14 15 24 33 32 23 35 38 31 45 54 53 50 62 72 73 65 68 51 36 41 36 62 62 59 56 54 61 69 69 63 57 52 45 42 38 35 33 33 33 32 32 31 29 29 27 23 27 28
13 19 31 29 29 24 36 45 42 35 46 50 50 51 66 68 76 76 69 46 42 36 37 71 64 59 58 58 57 59 59 56 49 47 47 42 38 36 35 33 33 33 33 30 29 26 29 29 29
19 15 18 27 34 15 18 20 20 14 14 37 50 40 31 43 74 68 69 65 53 36 38 48 63 69 66 62 57 58 53 49 44 43 40 40 42 42 40 36 34 31 31 35 31 28 27 26 22
20 5 15 27 16 12 14 9 16 13 10 6 38 39 30 23 63 67 71 73 61 45 39 34 37 51 59 61 66 61 61 56 51 46 40 37 39 35 35 31 33 33 32 31 28 26 28 28 27
15 24 20 15 15 18 8 2 13 20 15 14 18 30 30 16 48 62 63 73 72 61 50 38 30 27 44 51 56 60 65 55 44 43 37 37 34 30 32 36 38 38 37 34 34 32 35 35 33
27 16 20 14 8 4 9 7 14 11 16 4 13 8 23 20 26 43 50 54 56 59 51 42 30 24 32 36 41 48 53 52 52 45 40 36 36 33 32 29 29 29 28 29 32 37 36 35 33
8 10 7 9 6 8 9 10 12 22 18 12 14 22 22 15 20 34 46 46 49 55 54 35 33 35 31 28 33 37 48 50 51 49 46 42 19 18 8 5 7 12 20 23 23 27 29 31 28
12 4 5 12 8 10 11 5 6 3 11 25 28 24 16 9 12 26 39 46 47 52 54 39 42 48 48 45 42 37 17 33 28 15 38 31 32 22 24 16 13 20 27 30 25 22 20 21 23
14 9 9 5 2 3 9 14 8 24 18 25 28 25 20 9 3 11 20 25 35 39 37 42 35 40 40 44 42 22 11 19 30 20 11 16 14 6 6 6 20 17 11 8 10 15 16 20 15
9 10 8 6 9 8 12 1 8 31 29 16 17 19 16 11 8 9 13 16 21 32 35 30 34 38 35 27 8 35 40 25 32 35 32 36 36 22 10 10 18 15 9 9 9 13 18 14 13
9 6 7 7 3 5 6 7 11 15 16 12 18 20 16 14 11 11 14 17 22 27 36 41 41 45 47 39 40 44 44 41 37 35 28 26 27 24 19 16 11 10 9 6 2 2 5 8 9
2 4 4 3 8 6 2 5 10 11 10 15 17 17 18 18 18 18 18 22 25 31 35 45 51 54 48 39 36 33 31 32 28 31 33 28 27 26 24 20 16 13 10 6 5 5 6 7 7
Wind_Direction_850mb
331 340 330 335 37 72 275 265 258 96 60 85 83 80 124 47 65 174 154 173 182 169 168 165 157 155 154 154 154 149 149 146 138 131 127 121 127 129 135 141 170 186 151 127 130 128 121 104 97
325 335 3 319 108 71 278 207 59 15 123 102 91 45 97 91 102 139 165 192 181 175 168 163 155 154 154 153 151 152 154 158 155 142 140 139 139 138 132 137 151 141 143 133 122 113 113 105 100
316 325 281 138 194 189 235 93 153 102 94 106 107 57 87 123 137 158 203 175 179 174 166 159 158 157 153 147 150 155 155 154 148 142 153 154 149 151 161 173 166 139 137 131 119 110 108 107 103
341 67 265 143 263 263 236 292 144 131 88 93 117 81 84 126 152 162 182 179 181 171 164 160 160 158 152 145 150 149 146 144 150 156 158 159 161 162 164 175 160 140 136 129 120 114 106 103 100
349 270 267 266 255 276 279 269 160 156 166 192 179 156 107 140 167 169 179 182 174 170 165 162 161 160 156 148 149 149 150 158 161 164 166 170 173 165 160 164 152 142 136 131 124 116 110 105 97
335 294 168 232 253 276 317 350 278 99 135 210 156 116 141 178 177 170 179 183 188 171 165 165 165 165 162 161 162 163 166 172 175 170 173 171 166 162 160 155 150 145 140 131 125 123 118 109 98
153 60 236 272 275 296 291 328 327 353 17 3 174 95 148 174 163 165 179 184 182 171 169 169 168 169 169 165 171 171 174 176 180 184 189 184 175 168 164 159 159 157 149 138 132 125 116 102 83
273 110 267 242 263 280 293 268 279 331 312 346 172 155 173 180 160 168 173 183 177 177 180 178 173 173 174 173 177 180 187 197 206 199 195 197 184 165 162 160 166 166 163 149 136 131 125 92 48
255 69 247 246 222 256 290 294 274 249 305 28 57 156 186 175 165 170 171 176 182 186 192 188 181 179 180 180 182 188 194 202 205 203 201 205 198 179 184 176 178 184 162 166 161 175 296 284 281
174 168 216 259 292 297 306 308 314 198 333 113 107 125 151 172 174 174 174 179 190 191 195 188 187 184 185 187 189 192 199 200 197 190 193 197 204 206 212 207 202 208 209 214 221 217 228 277 321
281 225 283 291 296 300 297 295 268 281 220 174 205 179 179 181 185 180 180 186 192 198 187 189 192 189 191 194 195 199 201 203 200 191 184 188 197 204 216 215 228 237 232 230 216 210 297 333 335
347 329 321 311 320 327 307 295 282 257 251 247 65 257 206 199 185 186 183 184 191 197 192 190 196 193 198 198 204 205 203 204 204 198 191 193 205 211 228 230 233 221 217 215 223 244 274 324 336
296 339 323 320 319 316 323 306 271 269 261 271 224 219 221 208 197 189 185 187 193 194 195 199 189 190 193 196 204 208 212 208 207 210 201 199 208 216 226 219 214 212 213 228 249 274 292 301 299
317 324 317 316 312 308 314 310 285 252 257 264 212 217 216 214 212 191 195 186 193 198 198 201 202 195 197 197 201 209 206 204 206 210 211 210 211 220 218 222 230 232 238 242 253 266 282 295 303
318 313 313 292 294 285 302 294 255 264 252 265 248 214 203 213 224 222 211 196 190 193 204 204 210 209 201 203 207 213 229 206 209 221 222 221 217 214 220 228 234 240 244 251 261 270 277 286 290
318 304 290 109 302 287 237 258 271 283 247 258 264 211 214 211 232 238 222 216 200 193 202 212 210 205 204 202 209 213 214 213 214 226 224 225 224 224 226 233 241 246 248 252 256 265 270 273 279
267 267 273 298 272 266 245 275 281 260 265 247 253 236 213 202 216 231 231 219 217 197 199 215 219 209 204 204 206 215 216 219 223 225 226 231 230 228 234 241 247 248 249 254 261 264 270 270 270
280 305 306 302 305 310 299 295 275 261 238 250 248 237 222 206 208 219 221 222 219 216 204 209 221 223 211 209 209 211 214 221 227 230 228 232 237 238 239 242 242 244 249 254 259 266 265 262 269
287 284 280 286 289 311 291 294 284 268 240 243 259 231 225 212 199 186 195 220 227 222 203 210 210 218 221 210 212 214 216 221 226 228 233 236 238 238 241 243 246 247 251 257 261 260 261 263 278
307 298 292 294 293 321 303 292 288 284 226 224 236 226 224 220 198 191 202 202 227 231 201 208 215 213 218 223 218 217 219 225 232 234 232 234 242 246 247 249 248 247 248 252 257 251 257 264 273
271 274 294 291 313 292 309 275 275 271 223 219 227 236 239 211 196 200 199 200 190 207 221 207 213 223 223 221 220 220 224 230 236 234 231 239 240 243 248 251 251 251 248 248 255 259 263 270 275
296 266 292 307 326 308 22 301 299 266 263 198 225 217 206 197 191 191 198 198 203 199 219 220 219 216 222 224 230 220 220 229 234 237 238 239 241 237 237 242 246 247 248 248 250 256 261 263 274
261 328 292 289 263 275 231 183 276 299 246 238 212 215 220 200 195 192 200 204 201 194 199 215 214 220 211 221 224 226 228 237 239 238 230 232 237 232 228 233 239 245 248 247 251 256 257 262 260
288 287 275 281 268 252 238 164 297 302 250 217 63 95 232 208 192 197 201 207 203 198 194 200 200 224 213 210 225 233 237 236 233 230 231 223 220 221 223 236 243 246 250 253 263 263 263 263 268
346 302 343 356 8 219 180 170 272 359 7 55 79 62 79 124 166 187 193 198 208 205 196 191 216 219 224 223 243 250 241 237 232 228 197 181 168 170 153 280 269 282 295 294 279 271 275 272 271
303 278 358 357 331 299 295 297 23 0 98 67 62 59 66 101 147 171 178 191 197 204 203 207 194 213 214 233 233 229 188 8 34 8 56 58 40 45 55 9 326 295 291 276 261 266 260 267 261
326 49 284 265 170 356 326 351 262 19 7 32 55 60 66 70 136 191 202 202 204 210 198 193 194 205 219 223 211 163 39 29 12 349 340 65 33 354 294 255 266 272 253 259 258 253 262 244 263
192 323 356 0 13 356 358 358 291 339 343 8 23 38 48 61 104 154 170 179 183 183 175 168 180 181 175 172 121 66 79 99 84 73 113 133 137 125 139 188 195 204 223 233 243 244 249 278 274
357 11 345 278 81 316 0 347 347 324 333 21 28 46 51 63 89 109 139 147 153 156 147 145 147 148 141 142 136 134 143 150 144 150 143 146 156 151 145 137 152 130 127 142 121 339 359 0 351
248 233 351 296 348 285 238 291 337 347 27 60 47 54 69 75 90 105 114 128 132 134 133 136 137 136 133 137 140 134 134 130 119 131 125 120 119 116 118 124 123 116 111 101 70 44 21 2 340